| time (UTC) | temp F | wind direction | speed MPH | gust MPH | rain 1hr in | rain 24hr in | rain mn in | humidity % | barometer mb |
| 20260510025839 | 53 | 293 | 0.0 | 0.0 | 0.00 | 0.00 | 0.05 | 97 | 1009.7 |
| 20260510025330 | 53 | 338 | 0.0 | 0.0 | 0.00 | 0.00 | 0.05 | 97 | 1009.6 |
| 20260510024820 | 53 | 338 | 0.0 | 0.0 | 0.00 | 0.00 | 0.05 | 97 | 1009.6 |
| 20260510024309 | 54 | 338 | 0.0 | 0.0 | 0.00 | 0.00 | 0.05 | 97 | 1009.6 |
| 20260510023800 | 53 | 338 | 0.0 | 0.0 | 0.00 | 0.00 | 0.05 | 97 | 1009.5 |
| 20260510022740 | 54 | 315 | 0.0 | 0.0 | 0.00 | 0.00 | 0.05 | 97 | 1009.3 |
| 20260510022229 | 54 | 315 | 0.0 | 0.0 | 0.00 | 0.00 | 0.05 | 97 | 1009.4 |
| 20260510020658 | 53 | 0 | 0.0 | 0.0 | 0.00 | 0.00 | 0.05 | 97 | 1009.5 |
| 20260510020148 | 53 | 0 | 0.0 | 0.0 | 0.00 | 0.00 | 0.05 | 97 | 1009.5 |
| 20260510015638 | 53 | 0 | 0.0 | 0.0 | 0.00 | 0.00 | 0.05 | 97 | 1009.5 |
| 20260510014618 | 53 | 0 | 0.0 | 0.0 | 0.00 | 0.00 | 0.05 | 97 | 1009.6 |
| 20260510014108 | 53 | 0 | 0.0 | 0.0 | 0.00 | 0.00 | 0.05 | 97 | 1009.6 |
| 20260510013558 | 54 | 0 | 0.0 | 0.0 | 0.00 | 0.00 | 0.05 | 97 | 1009.6 |
| 20260510013047 | 54 | 0 | 0.0 | 0.0 | 0.00 | 0.00 | 0.05 | 97 | 1009.5 |
| 20260510012538 | 54 | 0 | 0.0 | 0.0 | 0.00 | 0.00 | 0.05 | 97 | 1009.6 |
| 20260510011517 | 54 | 0 | 0.0 | 0.0 | 0.00 | 0.00 | 0.05 | 97 | 1009.7 |
| 20260510011007 | 55 | 0 | 0.0 | 0.0 | 0.00 | 0.00 | 0.05 | 97 | 1009.9 |
| 20260510010456 | 55 | 0 | 0.0 | 0.0 | 0.00 | 0.00 | 0.05 | 97 | 1009.9 |
| 20260510005947 | 55 | 0 | 0.0 | 0.0 | 0.00 | 0.00 | 0.05 | 97 | 1009.8 |
| 20260510005437 | 55 | 0 | 0.0 | 0.0 | 0.00 | 0.00 | 0.05 | 97 | 1010.1 |
| 20260510004927 | 55 | 0 | 0.0 | 0.0 | 0.00 | 0.00 | 0.05 | 97 | 1009.9 |
| 20260510004416 | 55 | 0 | 0.0 | 0.0 | 0.00 | 0.00 | 0.05 | 97 | 1009.9 |
| 20260510003357 | 56 | 338 | 0.0 | 0.0 | 0.00 | 0.00 | 0.05 | 96 | 1010.4 |
| 20260510002847 | 56 | 338 | 0.0 | 0.0 | 0.00 | 0.00 | 0.05 | 97 | 1010.6 |
| 20260510002339 | 56 | 338 | 0.0 | 0.0 | 0.00 | 0.00 | 0.05 | 97 | 1010.5 |
| 20260510001826 | 57 | 338 | 0.0 | 0.0 | 0.00 | 0.00 | 0.05 | 97 | 1010.6 |
| 20260510001309 | 57 | 0.0 | 0.0 | 0.00 | 0.00 | 0.04 | 97 | ||
| 20260510000141 | 54 | 338 | 0.0 | 0.0 | 0.00 | 0.00 | 0.04 | 94 | 1011.1 |
| 20260509235943 | 57 | 338 | 0.0 | 0.0 | 0.01 | 0.40 | 0.04 | 96 | 1011.1 |
| 20260509235433 | 57 | 315 | 0.0 | 0.0 | 0.02 | 0.40 | 0.04 | 96 | 1011.1 |
| 20260509234922 | 57 | 315 | 0.0 | 0.0 | 0.02 | 0.40 | 0.04 | 96 | 1011.0 |
| 20260509234413 | 57 | 248 | 0.0 | 0.0 | 0.02 | 0.40 | 0.04 | 96 | 1011.3 |
| 20260509233902 | 57 | 270 | 0.0 | 0.0 | 0.02 | 0.40 | 0.04 | 96 | 1011.4 |
| 20260509233353 | 57 | 270 | 0.0 | 0.0 | 0.02 | 0.40 | 0.04 | 96 | 1011.4 |
| 20260509232842 | 57 | 270 | 0.0 | 0.0 | 0.04 | 0.40 | 0.04 | 96 | 1011.4 |
| 20260509232332 | 57 | 293 | 0.0 | 0.0 | 0.04 | 0.40 | 0.04 | 96 | 1011.1 |
| 20260509231822 | 57 | 293 | 0.0 | 0.0 | 0.04 | 0.40 | 0.04 | 96 | 1011.2 |
| 20260509231312 | 57 | 293 | 0.0 | 0.0 | 0.04 | 0.40 | 0.04 | 96 | 1011.5 |
| 20260509230251 | 57 | 293 | 0.0 | 0.0 | 0.02 | 0.39 | 0.02 | 96 | 1011.6 |
| 20260509225742 | 57 | 293 | 0.0 | 0.0 | 0.04 | 0.39 | 0.02 | 96 | 1011.6 |
| 20260509224721 | 57 | 293 | 0.0 | 0.0 | 0.02 | 0.38 | 0.01 | 96 | 1011.6 |
| 20260509224212 | 57 | 293 | 0.0 | 0.0 | 0.04 | 0.38 | 0.01 | 96 | 1011.4 |
| 20260509223702 | 57 | 293 | 0.0 | 0.0 | 0.05 | 0.38 | 0.01 | 96 | 1011.5 |
| 20260509223151 | 57 | 293 | 0.0 | 0.0 | 0.04 | 0.37 | 0.01 | 96 | 1011.4 |
| 20260509222130 | 56 | 270 | 0.0 | 0.0 | 0.05 | 0.37 | 0.00 | 96 | 1011.3 |
| 20260509221621 | 56 | 270 | 0.0 | 0.0 | 0.05 | 0.37 | 0.00 | 96 | 1011.2 |
| 20260509221110 | 56 | 270 | 0.0 | 0.0 | 0.05 | 0.37 | 0.00 | 96 | 1011.4 |
| 20260509220600 | 56 | 270 | 0.0 | 0.0 | 0.06 | 0.37 | 0.00 | 96 | 1011.4 |
| 20260509220050 | 56 | 293 | 0.0 | 0.0 | 0.06 | 0.37 | 0.00 | 96 | 1011.5 |
| 20260509215540 | 57 | 293 | 0.0 | 0.0 | 0.06 | 0.35 | 0.35 | 96 | 1011.5 |
| 20260509215030 | 57 | 315 | 0.0 | 0.0 | 0.06 | 0.35 | 0.35 | 95 | 1011.5 |
| 20260509214011 | 57 | 315 | 0.0 | 0.0 | 0.06 | 0.34 | 0.34 | 95 | 1011.8 |
| 20260509213459 | 57 | 315 | 0.0 | 0.0 | 0.05 | 0.33 | 0.33 | 95 | 1011.6 |
| 20260509212950 | 57 | 315 | 0.0 | 0.0 | 0.04 | 0.32 | 0.32 | 95 | 1011.5 |
| 20260509211930 | 57 | 315 | 0.0 | 0.0 | 0.04 | 0.32 | 0.32 | 95 | 1011.1 |
| 20260509211419 | 57 | 315 | 0.0 | 0.0 | 0.04 | 0.32 | 0.32 | 95 | 1011.3 |
| 20260509210909 | 57 | 315 | 0.0 | 0.0 | 0.04 | 0.32 | 0.32 | 95 | 1011.3 |
| 20260509210359 | 57 | 315 | 0.0 | 0.0 | 0.02 | 0.31 | 0.31 | 95 | 1011.1 |
| 20260509205849 | 57 | 315 | 0.0 | 0.0 | 0.02 | 0.31 | 0.31 | 95 | 1011.1 |
| 20260509205338 | 57 | 315 | 0.0 | 0.0 | 0.01 | 0.30 | 0.30 | 95 | 1011.0 |
| 20260509204829 | 57 | 315 | 0.0 | 0.0 | 0.01 | 0.30 | 0.30 | 95 | 1010.7 |
| 20260509204319 | 57 | 315 | 0.0 | 0.0 | 0.00 | 0.28 | 0.28 | 95 | 1010.6 |
| 20260509203258 | 56 | 293 | 0.0 | 0.0 | 0.01 | 0.28 | 0.28 | 95 | 1010.3 |
| 20260509202749 | 56 | 338 | 0.0 | 0.0 | 0.01 | 0.28 | 0.28 | 95 | 1010.3 |
| 20260509202239 | 56 | 338 | 0.0 | 0.0 | 0.01 | 0.28 | 0.28 | 95 | 1010.2 |
| 20260509201728 | 56 | 315 | 0.0 | 0.0 | 0.02 | 0.28 | 0.28 | 95 | 1010.1 |
| 20260509200708 | 56 | 293 | 0.0 | 0.0 | 0.04 | 0.28 | 0.28 | 94 | 1009.8 |
| 20260509200158 | 57 | 248 | 0.0 | 0.0 | 0.05 | 0.28 | 0.28 | 94 | 1009.7 |
| 20260509194627 | 56 | 338 | 0.0 | 0.0 | 0.09 | 0.28 | 0.28 | 94 | 1008.8 |
| 20260509193607 | 55 | 315 | 0.0 | 0.0 | 0.11 | 0.27 | 0.27 | 94 | 1008.8 |
| 20260509193056 | 55 | 338 | 0.0 | 0.0 | 0.11 | 0.27 | 0.27 | 94 | 1008.2 |
| 20260509192547 | 55 | 338 | 0.0 | 0.0 | 0.12 | 0.27 | 0.27 | 94 | 1007.9 |
| 20260509191526 | 55 | 338 | 0.0 | 0.0 | 0.14 | 0.26 | 0.26 | 94 | 1008.9 |
| 20260509191017 | 55 | 338 | 0.0 | 0.0 | 0.13 | 0.25 | 0.25 | 93 | 1009.3 |
| 20260509190507 | 56 | 0 | 0.0 | 0.0 | 0.14 | 0.25 | 0.25 | 93 | 1009.4 |
| 20260509185956 | 56 | 0 | 0.0 | 0.0 | 0.13 | 0.22 | 0.22 | 93 | 1009.9 |
| 20260509185448 | 56 | 0 | 0.0 | 0.0 | 0.13 | 0.21 | 0.21 | 93 | 1009.7 |
| 20260509184936 | 57 | 0 | 0.0 | 0.0 | 0.12 | 0.19 | 0.19 | 92 | 1009.9 |
| 20260509184426 | 57 | 45 | 0.0 | 0.0 | 0.13 | 0.19 | 0.19 | 92 | 1010.3 |
| 20260509183916 | 58 | 45 | 0.0 | 0.0 | 0.13 | 0.18 | 0.18 | 92 | 1010.3 |
| 20260509183405 | 57 | 135 | 0.0 | 0.0 | 0.14 | 0.17 | 0.17 | 91 | 1010.8 |
| 20260509182858 | 58 | 135 | 0.0 | 0.0 | 0.14 | 0.17 | 0.17 | 91 | 1010.8 |
| 20260509182346 | 57 | 135 | 0.0 | 0.0 | 0.14 | 0.15 | 0.15 | 91 | 1010.8 |
| 20260509180304 | 58 | 135 | 0.0 | 0.0 | 0.11 | 0.11 | 0.11 | 89 | 1011.0 |
| 20260509175754 | 58 | 135 | 0.0 | 0.0 | 0.09 | 0.09 | 0.09 | 88 | 1010.7 |
| 20260509175245 | 58 | 135 | 0.0 | 0.0 | 0.07 | 0.07 | 0.08 | 88 | 1010.6 |
| 20260509174735 | 58 | 135 | 0.0 | 0.0 | 0.06 | 0.06 | 0.06 | 87 | 1010.7 |
| 20260509173715 | 59 | 158 | 0.0 | 0.0 | 0.04 | 0.04 | 0.04 | 86 | 1010.8 |
| 20260509173205 | 59 | 135 | 0.0 | 0.0 | 0.02 | 0.02 | 0.02 | 85 | 1010.6 |
| 20260509172654 | 59 | 158 | 0.0 | 0.0 | 0.01 | 0.01 | 0.01 | 85 | 1010.5 |
| 20260509172144 | 60 | 158 | 0.0 | 0.0 | 0.01 | 0.01 | 0.01 | 86 | 1010.6 |
| 20260509171634 | 63 | 180 | 0.0 | 0.0 | 0.00 | 0.00 | 0.00 | 86 | 1010.6 |
| 20260509171123 | 63 | 248 | 0.0 | 0.0 | 0.00 | 0.00 | 0.00 | 86 | 1010.3 |
| 20260509170614 | 64 | 225 | 0.0 | 0.0 | 0.00 | 0.00 | 0.00 | 85 | 1010.5 |
| 20260509170103 | 63 | 248 | 0.0 | 0.0 | 0.00 | 0.00 | 0.00 | 84 | 1010.3 |
| 20260509165044 | 64 | 270 | 0.0 | 0.0 | 0.00 | 0.00 | 0.00 | 84 | 1010.0 |
| 20260509164536 | 64 | 270 | 0.0 | 0.0 | 0.00 | 0.00 | 0.00 | 84 | 1009.9 |
| 20260509164023 | 63 | 338 | 0.0 | 0.0 | 0.00 | 0.00 | 0.00 | 84 | 1009.8 |
| 20260509163514 | 64 | 338 | 0.0 | 0.0 | 0.00 | 0.00 | 0.00 | 83 | 1009.5 |
| 20260509163003 | 64 | 315 | 0.0 | 0.0 | 0.00 | 0.00 | 0.00 | 83 | 1009.4 |
| 20260509161943 | 64 | 0 | 0.0 | 0.0 | 0.00 | 0.00 | 0.00 | 82 | 1009.3 |
| 20260509160922 | 64 | 338 | 0.0 | 0.0 | 0.00 | 0.00 | 0.00 | 81 | 1009.1 |
| 20260509160412 | 64 | 135 | 0.0 | 0.0 | 0.00 | 0.00 | 0.00 | 80 | 1009.2 |
| 20260509155902 | 64 | 135 | 0.0 | 0.0 | 0.00 | 0.00 | 0.00 | 79 | 1009.3 |
| 20260509155352 | 65 | 135 | 0.0 | 0.0 | 0.00 | 0.00 | 0.00 | 78 | 1009.6 |
| 20260509154842 | 65 | 135 | 0.0 | 0.0 | 0.00 | 0.00 | 0.00 | 78 | 1009.8 |
| 20260509154332 | 65 | 135 | 0.0 | 0.0 | 0.00 | 0.00 | 0.00 | 77 | 1009.6 |
| 20260509153822 | 65 | 135 | 0.0 | 0.0 | 0.00 | 0.00 | 0.00 | 75 | 1009.6 |
| 20260509153313 | 65 | 135 | 0.0 | 0.0 | 0.00 | 0.00 | 0.00 | 75 | 1009.8 |
| 20260509152803 | 65 | 135 | 0.0 | 0.0 | 0.00 | 0.00 | 0.00 | 75 | 1009.6 |
| 20260509152251 | 65 | 135 | 0.0 | 0.0 | 0.00 | 0.00 | 0.00 | 75 | 1010.0 |
| 20260509151741 | 65 | 135 | 0.0 | 0.0 | 0.00 | 0.00 | 0.00 | 74 | 1010.3 |
| 20260509151232 | 65 | 158 | 0.0 | 0.0 | 0.00 | 0.00 | 0.00 | 72 | 1010.4 |
| 20260509150721 | 66 | 135 | 0.0 | 0.0 | 0.00 | 0.00 | 0.00 | 73 | 1010.4 |
| 20260509150211 | 65 | 135 | 0.0 | 0.0 | 0.00 | 0.00 | 0.00 | 73 | 1010.7 |
| 20260509145701 | 65 | 135 | 0.0 | 0.0 | 0.00 | 0.00 | 0.00 | 72 | 1010.5 |
| 20260509144640 | 65 | 135 | 0.0 | 0.0 | 0.00 | 0.00 | 0.00 | 72 | 1010.4 |
| 20260509144130 | 65 | 113 | 0.0 | 0.0 | 0.00 | 0.00 | 0.00 | 71 | 1010.7 |
| 20260509143620 | 66 | 135 | 0.0 | 0.0 | 0.00 | 0.00 | 0.00 | 71 | 1010.5 |
| 20260509143111 | 66 | 135 | 0.0 | 0.0 | 0.00 | 0.00 | 0.00 | 70 | 1010.8 |
| 20260509142600 | 66 | 158 | 0.0 | 0.0 | 0.00 | 0.00 | 0.00 | 71 | 1010.7 |
| 20260509142049 | 66 | 135 | 0.0 | 0.0 | 0.00 | 0.00 | 0.00 | 72 | 1010.6 |
| 20260509141540 | 66 | 135 | 0.0 | 0.0 | 0.00 | 0.00 | 0.00 | 72 | 1010.7 |
| 20260509140010 | 66 | 180 | 0.0 | 0.0 | 0.00 | 0.00 | 0.00 | 75 | 1010.6 |
| 20260509134439 | 67 | 135 | 0.0 | 0.0 | 0.00 | 0.00 | 0.00 | 75 | 1010.7 |
| 20260509133929 | 67 | 158 | 0.0 | 0.0 | 0.00 | 0.00 | 0.00 | 75 | 1010.8 |
| 20260509132909 | 67 | 135 | 0.0 | 0.0 | 0.00 | 0.00 | 0.00 | 75 | 1010.8 |
| 20260509132359 | 67 | 135 | 0.0 | 0.0 | 0.00 | 0.00 | 0.00 | 74 | 1010.8 |
| 20260509131848 | 67 | 135 | 0.0 | 0.0 | 0.00 | 0.00 | 0.00 | 75 | 1010.9 |
| 20260509131338 | 68 | 158 | 0.0 | 0.0 | 0.00 | 0.00 | 0.00 | 75 | 1010.9 |
| 20260509130829 | 66 | 135 | 0.0 | 0.0 | 0.00 | 0.00 | 0.00 | 72 | 1010.9 |
| 20260509130318 | 67 | 68 | 0.0 | 0.0 | 0.00 | 0.00 | 0.00 | 75 | 1011.0 |
| 20260509125808 | 67 | 90 | 0.0 | 0.0 | 0.00 | 0.00 | 0.00 | 75 | 1010.7 |
| 20260509125301 | 66 | 135 | 0.0 | 0.0 | 0.00 | 0.00 | 0.00 | 75 | 1011.2 |
| 20260509124748 | 67 | 135 | 0.0 | 0.0 | 0.00 | 0.00 | 0.00 | 76 | 1011.7 |
| 20260509123728 | 67 | 158 | 0.0 | 0.0 | 0.00 | 0.00 | 0.00 | 77 | 1011.7 |
| 20260509123218 | 68 | 135 | 0.0 | 0.0 | 0.00 | 0.00 | 0.00 | 73 | 1011.9 |
| 20260509121648 | 67 | 113 | 0.0 | 0.0 | 0.00 | 0.00 | 0.00 | 75 | 1012.0 |
| 20260509121138 | 67 | 135 | 0.0 | 0.0 | 0.00 | 0.00 | 0.00 | 76 | 1011.6 |
| 20260509115607 | 67 | 158 | 0.0 | 0.0 | 0.00 | 0.00 | 0.00 | 77 | 1011.7 |
| 20260509115057 | 67 | 135 | 0.0 | 0.0 | 0.00 | 0.00 | 0.00 | 78 | 1011.6 |
| 20260509114547 | 67 | 113 | 0.0 | 0.0 | 0.00 | 0.00 | 0.00 | 78 | 1011.8 |
| 20260509114036 | 67 | 135 | 0.0 | 0.0 | 0.00 | 0.00 | 0.00 | 77 | 1011.7 |
| 20260509113527 | 67 | 135 | 0.0 | 0.0 | 0.00 | 0.00 | 0.00 | 77 | 1011.8 |
| 20260509113017 | 67 | 113 | 0.0 | 0.0 | 0.00 | 0.00 | 0.00 | 74 | 1011.7 |
| 20260509112506 | 68 | 113 | 0.0 | 0.0 | 0.00 | 0.00 | 0.00 | 74 | 1011.8 |
| 20260509111957 | 68 | 113 | 0.0 | 0.0 | 0.00 | 0.00 | 0.00 | 76 | 1011.9 |
| 20260509110936 | 67 | 135 | 0.0 | 0.0 | 0.00 | 0.00 | 0.00 | 77 | 1012.0 |
| 20260509110426 | 67 | 135 | 0.0 | 0.0 | 0.00 | 0.00 | 0.00 | 77 | 1012.1 |
| 20260509105405 | 67 | 113 | 0.0 | 0.0 | 0.00 | 0.00 | 0.00 | 77 | 1012.3 |
| 20260509104856 | 67 | 135 | 0.0 | 0.0 | 0.00 | 0.00 | 0.00 | 76 | 1012.4 |
| 20260509104346 | 68 | 113 | 0.0 | 0.0 | 0.00 | 0.00 | 0.00 | 76 | 1012.5 |
| 20260509102306 | 68 | 135 | 0.0 | 0.0 | 0.00 | 0.00 | 0.00 | 75 | 1012.4 |
| 20260509101754 | 68 | 113 | 0.0 | 0.0 | 0.00 | 0.00 | 0.00 | 76 | 1012.6 |
| 20260509101244 | 68 | 113 | 0.0 | 0.0 | 0.00 | 0.00 | 0.00 | 76 | 1012.3 |
| 20260509100734 | 68 | 135 | 0.0 | 0.0 | 0.00 | 0.00 | 0.00 | 76 | 1012.2 |
| 20260509100225 | 67 | 135 | 0.0 | 0.0 | 0.00 | 0.00 | 0.00 | 78 | 1012.0 |
| 20260509095714 | 67 | 113 | 0.0 | 0.0 | 0.00 | 0.00 | 0.00 | 78 | 1012.0 |
| 20260509095204 | 68 | 135 | 0.0 | 0.0 | 0.00 | 0.00 | 0.00 | 77 | 1012.0 |
| 20260509094654 | 68 | 203 | 0.0 | 0.0 | 0.00 | 0.00 | 0.00 | 76 | 1012.2 |
| 20260509094143 | 69 | 158 | 0.0 | 0.0 | 0.00 | 0.00 | 0.00 | 74 | 1012.0 |
| 20260509093634 | 68 | 158 | 0.0 | 0.0 | 0.00 | 0.00 | 0.00 | 76 | 1012.1 |
| 20260509092613 | 68 | 135 | 0.0 | 0.0 | 0.00 | 0.00 | 0.00 | 76 | 1011.9 |
| 20260509092103 | 68 | 158 | 0.0 | 0.0 | 0.00 | 0.00 | 0.00 | 77 | 1011.9 |
| 20260509091554 | 67 | 135 | 0.0 | 0.0 | 0.00 | 0.00 | 0.00 | 77 | 1011.8 |
| 20260509091043 | 67 | 113 | 0.0 | 0.0 | 0.00 | 0.00 | 0.00 | 78 | 1011.6 |
| 20260509085513 | 66 | 113 | 0.0 | 0.0 | 0.00 | 0.00 | 0.00 | 80 | 1012.2 |
| 20260509085003 | 66 | 158 | 0.0 | 0.0 | 0.00 | 0.00 | 0.00 | 80 | 1012.2 |
| 20260509083942 | 65 | 135 | 0.0 | 0.0 | 0.00 | 0.00 | 0.00 | 83 | 1012.2 |
| 20260509083432 | 66 | 113 | 0.0 | 0.0 | 0.00 | 0.00 | 0.00 | 82 | 1012.1 |
| 20260509082923 | 66 | 90 | 0.0 | 0.0 | 0.00 | 0.00 | 0.00 | 83 | 1012.1 |
| 20260509082413 | 65 | 158 | 0.0 | 0.0 | 0.00 | 0.00 | 0.00 | 83 | 1012.3 |
| 20260509081902 | 65 | 158 | 0.0 | 0.0 | 0.00 | 0.00 | 0.00 | 84 | 1012.4 |
| 20260509080842 | 65 | 158 | 0.0 | 0.0 | 0.00 | 0.00 | 0.00 | 82 | 1012.3 |
| 20260509080332 | 65 | 225 | 0.0 | 0.0 | 0.00 | 0.00 | 0.00 | 82 | 1012.2 |
| 20260509075821 | 65 | 135 | 0.0 | 0.0 | 0.00 | 0.00 | 0.00 | 81 | 1012.5 |
| 20260509075312 | 65 | 225 | 0.0 | 0.0 | 0.00 | 0.00 | 0.00 | 83 | 1012.5 |
| 20260509074251 | 64 | 68 | 0.0 | 0.0 | 0.00 | 0.00 | 0.00 | 84 | 1012.3 |
| 20260509073742 | 63 | 315 | 0.0 | 0.0 | 0.00 | 0.00 | 0.00 | 85 | 1012.8 |
| 20260509073231 | 62 | 315 | 0.0 | 0.0 | 0.00 | 0.00 | 0.00 | 85 | 1012.4 |
| 20260509072721 | 62 | 293 | 0.0 | 0.0 | 0.00 | 0.00 | 0.00 | 86 | 1012.6 |
| 20260509071700 | 61 | 315 | 0.0 | 0.0 | 0.00 | 0.00 | 0.00 | 88 | 1012.8 |
| 20260509071151 | 61 | 338 | 0.0 | 0.0 | 0.00 | 0.00 | 0.00 | 89 | 1012.6 |
| 20260509070641 | 60 | 315 | 0.0 | 0.0 | 0.00 | 0.00 | 0.00 | 90 | 1012.8 |
| 20260509070131 | 60 | 315 | 0.0 | 0.0 | 0.00 | 0.00 | 0.00 | 91 | 1012.6 |
| 20260509065620 | 59 | 293 | 0.0 | 0.0 | 0.00 | 0.00 | 0.00 | 92 | 1012.7 |
| 20260509065110 | 59 | 315 | 0.0 | 0.0 | 0.00 | 0.00 | 0.00 | 93 | 1012.6 |
| 20260509064601 | 59 | 315 | 0.0 | 0.0 | 0.00 | 0.00 | 0.00 | 94 | 1012.6 |
| 20260509063540 | 59 | 338 | 0.0 | 0.0 | 0.00 | 0.00 | 0.00 | 94 | 1012.6 |
| 20260509062520 | 58 | 315 | 0.0 | 0.0 | 0.00 | 0.00 | 0.00 | 95 | 1012.6 |
| 20260509062009 | 57 | 315 | 0.0 | 0.0 | 0.00 | 0.00 | 0.00 | 95 | 1012.7 |
| 20260509061459 | 57 | 293 | 0.0 | 0.0 | 0.00 | 0.00 | 0.00 | 95 | 1012.9 |
| 20260509060949 | 57 | 293 | 0.0 | 0.0 | 0.00 | 0.00 | 0.00 | 95 | 1012.8 |
| 20260509060439 | 57 | 270 | 0.0 | 0.0 | 0.00 | 0.00 | 0.00 | 95 | 1012.9 |
| 20260509055929 | 57 | 270 | 0.0 | 0.0 | 0.00 | 0.00 | 0.00 | 95 | 1012.7 |
| 20260509055418 | 56 | 270 | 0.0 | 0.0 | 0.00 | 0.00 | 0.00 | 95 | 1012.9 |
| 20260509054909 | 56 | 270 | 0.0 | 0.0 | 0.00 | 0.00 | 0.00 | 95 | 1012.8 |
| 20260509054359 | 56 | 293 | 0.0 | 0.0 | 0.00 | 0.00 | 0.00 | 95 | 1012.9 |
| 20260509053848 | 56 | 338 | 0.0 | 0.0 | 0.00 | 0.00 | 0.00 | 96 | 1012.8 |
| 20260509053338 | 56 | 338 | 0.0 | 0.0 | 0.00 | 0.00 | 0.00 | 96 | 1012.9 |
| 20260509052829 | 55 | 315 | 0.0 | 0.0 | 0.00 | 0.00 | 0.00 | 96 | 1012.6 |
| 20260509052319 | 55 | 338 | 0.0 | 0.0 | 0.00 | 0.00 | 0.00 | 96 | 1012.6 |
| 20260509051808 | 55 | 293 | 0.0 | 0.0 | 0.00 | 0.00 | 0.00 | 96 | 1012.6 |
| 20260509051258 | 55 | 270 | 0.0 | 0.0 | 0.00 | 0.00 | 0.00 | 96 | 1012.6 |
| 20260509045727 | 55 | 293 | 0.0 | 0.0 | 0.00 | 0.00 | 0.00 | 96 | 1012.4 |
| 20260509045217 | 55 | 270 | 0.0 | 0.0 | 0.00 | 0.00 | 0.00 | 96 | 1012.4 |
| 20260509044708 | 55 | 270 | 0.0 | 0.0 | 0.00 | 0.00 | 0.00 | 96 | 1012.5 |
| 20260509044157 | 55 | 293 | 0.0 | 0.0 | 0.00 | 0.00 | 0.00 | 96 | 1012.4 |
| 20260509043647 | 54 | 293 | 0.0 | 0.0 | 0.00 | 0.00 | 0.00 | 96 | 1012.4 |
| 20260509043137 | 54 | 293 | 0.0 | 0.0 | 0.00 | 0.00 | 0.00 | 96 | 1012.5 |
| 20260509042117 | 55 | 293 | 0.0 | 0.0 | 0.00 | 0.00 | 0.00 | 96 | 1012.3 |
| 20260509041611 | 54 | 293 | 0.0 | 0.0 | 0.00 | 0.00 | 0.00 | 96 | 1012.4 |
| 20260509041057 | 54 | 293 | 0.0 | 0.0 | 0.00 | 0.00 | 0.00 | 96 | 1012.2 |
| 20260509040548 | 53 | 293 | 0.0 | 0.0 | 0.00 | 0.00 | 0.00 | 96 | 1012.3 |
| 20260509040033 | 54 | 293 | 0.0 | 0.0 | 0.00 | 0.00 | 0.00 | 96 | 1012.3 |
| 20260509035527 | 54 | 158 | 0.0 | 0.0 | 0.00 | 0.00 | 0.00 | 96 | 1012.3 |
| 20260509035016 | 53 | 158 | 0.0 | 0.0 | 0.00 | 0.00 | 0.00 | 96 | 1012.2 |
| 20260509034507 | 53 | 158 | 0.0 | 0.0 | 0.00 | 0.00 | 0.00 | 95 | 1012.1 |
| 20260509033956 | 53 | 158 | 0.0 | 0.0 | 0.00 | 0.00 | 0.00 | 95 | 1012.1 |
| 20260509032936 | 53 | 158 | 0.0 | 0.0 | 0.00 | 0.00 | 0.00 | 95 | 1012.1 |
| 20260509032425 | 53 | 158 | 0.0 | 0.0 | 0.00 | 0.00 | 0.00 | 95 | 1012.3 |
| 20260509031915 | 53 | 158 | 0.0 | 0.0 | 0.00 | 0.00 | 0.00 | 95 | 1012.4 |
| 20260509031405 | 53 | 158 | 0.0 | 0.0 | 0.00 | 0.00 | 0.00 | 95 | 1012.3 |
| 20260509030858 | 53 | 158 | 0.0 | 0.0 | 0.00 | 0.00 | 0.00 | 95 | 1012.4 |
| 20260509030345 | 54 | 158 | 0.0 | 0.0 | 0.00 | 0.00 | 0.00 | 95 | 1012.3 |